When you browse on this site, cookies collect data to enhance your experience and personalize the content and advertising you see.
Visit our Privacy Policy to learn more. By continuing to use the site, you agree to this use of cookies and data.
  • In Latvia
  • List of Countries
  • For 7 days
  • Water Temperature
  • Satellite Maps
  • Weather Map
  • Weather Widgets
  • user-avatar
    Login

    Hourly Weather Albuquerque

    Today, 15 July, Monday

    Time Temperature Precipitation Wind Pressure Humidity
    00:00 +28°C° 0 mm 6 mps 640 mmHg 45%
    01:00 +27°C° 0 mm 5 mps 640 mmHg 46%
    02:00 +26°C° 0 mm 4 mps 640 mmHg 47%
    03:00 +26°C° 0 mm 3 mps 639 mmHg 48%
    04:00 +25°C° 0 mm 2 mps 639 mmHg 49%
    05:00 +25°C° 0 mm 2 mps 639 mmHg 47%
    06:00 +26°C° 0 mm 2 mps 639 mmHg 43%
    07:00 +27°C° 0 mm 1 mps 640 mmHg 39%
    08:00 +28°C° 0 mm 1 mps 640 mmHg 35%
    09:00 +30°C° 0 mm 1 mps 640 mmHg 32%
    10:00 +31°C° 0 mm 1 mps 640 mmHg 29%
    11:00 +34°C° 0 mm 2 mps 640 mmHg 26%
    12:00 +35°C° 0 mm 2 mps 640 mmHg 23%
    13:00 +36°C° 0 mm 2 mps 640 mmHg 21%
    14:00 +37°C° 0 mm 2 mps 639 mmHg 19%
    15:00 +36°C° 0 mm 5 mps 639 mmHg 21%
    16:00 +37°C° 0 mm 8 mps 639 mmHg 22%
    17:00 +36°C° 0 mm 11 mps 638 mmHg 24%
    18:00 +34°C° 0.1 mm 8 mps 638 mmHg 27%
    19:00 +32°C° 0.1 mm 6 mps 639 mmHg 30%
    20:00 +30°C° 0.1 mm 4 mps 639 mmHg 33%
    21:00 +29°C° 0.1 mm 3 mps 639 mmHg 35%
    22:00 +29°C° 0.1 mm 3 mps 639 mmHg 37%
    23:00 +29°C° 0.1 mm 3 mps 639 mmHg 39%

    Tomorrow, 16 July, Tuesday

    Time Temperature Precipitation Wind Pressure Humidity
    00:00 +28°C° 0 mm 3 mps 639 mmHg 40%
    01:00 +28°C° 0 mm 2 mps 638 mmHg 42%
    02:00 +27°C° 0 mm 2 mps 638 mmHg 44%
    03:00 +27°C° 0 mm 2 mps 638 mmHg 46%
    04:00 +26°C° 0 mm 1 mps 637 mmHg 49%
    05:00 +25°C° 0 mm 1 mps 637 mmHg 51%
    06:00 +27°C° 0 mm 1 mps 638 mmHg 46%
    07:00 +28°C° 0 mm 1 mps 638 mmHg 41%
    08:00 +30°C° 0 mm 1 mps 639 mmHg 36%
    09:00 +31°C° 0 mm 1 mps 639 mmHg 33%
    10:00 +32°C° 0 mm 2 mps 639 mmHg 30%
    11:00 +35°C° 0 mm 2 mps 639 mmHg 26%
    12:00 +36°C° 0 mm 2 mps 639 mmHg 24%
    13:00 +37°C° 0 mm 3 mps 639 mmHg 21%
    14:00 +38°C° 0 mm 3 mps 639 mmHg 19%
    15:00 +36°C° 0.1 mm 6 mps 639 mmHg 22%
    16:00 +35°C° 0.1 mm 8 mps 638 mmHg 26%
    17:00 +33°C° 0.1 mm 10 mps 638 mmHg 30%
    18:00 +31°C° 0.3 mm 10 mps 638 mmHg 37%
    19:00 +29°C° 0.3 mm 9 mps 638 mmHg 44%
    20:00 +27°C° 0.3 mm 9 mps 638 mmHg 51%
    21:00 +27°C° 0.1 mm 7 mps 638 mmHg 48%
    22:00 +27°C° 0.1 mm 5 mps 639 mmHg 45%
    23:00 +27°C° 0.1 mm 3 mps 639 mmHg 43%

    Day after tomorrow, 17 July, Wednesday

    Time Temperature Precipitation Wind Pressure Humidity
    00:00 +27°C° 0 mm 3 mps 639 mmHg 44%
    01:00 +27°C° 0 mm 2 mps 638 mmHg 46%
    02:00 +26°C° 0 mm 2 mps 638 mmHg 47%
    03:00 +26°C° 0 mm 2 mps 638 mmHg 49%
    04:00 +25°C° 0 mm 2 mps 637 mmHg 51%
    05:00 +25°C° 0 mm 2 mps 637 mmHg 52%
    06:00 +26°C° 0 mm 2 mps 638 mmHg 48%
    07:00 +27°C° 0 mm 2 mps 638 mmHg 43%
    08:00 +29°C° 0 mm 2 mps 639 mmHg 38%
    09:00 +31°C° 0 mm 2 mps 639 mmHg 31%
    10:00 +34°C° 0 mm 3 mps 639 mmHg 24%
    11:00 +36°C° 0 mm 4 mps 640 mmHg 18%
    12:00 +36°C° 0 mm 4 mps 639 mmHg 17%
    13:00 +37°C° 0 mm 4 mps 639 mmHg 15%
    14:00 +39°C° 0 mm 5 mps 639 mmHg 14%
    15:00 +39°C° 0 mm 5 mps 639 mmHg 14%
    16:00 +39°C° 0 mm 5 mps 638 mmHg 13%
    17:00 +39°C° 0 mm 5 mps 638 mmHg 13%
    18:00 +37°C° 0 mm 5 mps 638 mmHg 15%
    19:00 +36°C° 0 mm 4 mps 638 mmHg 16%
    20:00 +34°C° 0 mm 4 mps 637 mmHg 18%
    21:00 +33°C° 0 mm 3 mps 638 mmHg 20%
    22:00 +31°C° 0 mm 2 mps 638 mmHg 23%
    23:00 +30°C° 0 mm 2 mps 638 mmHg 25%

    18 July, Thursday

    Time Temperature Precipitation Wind Pressure Humidity
    00:00 +30°C° 0 mm 2 mps 638 mmHg 26%
    01:00 +30°C° 0 mm 3 mps 638 mmHg 27%
    02:00 +29°C° 0 mm 3 mps 638 mmHg 27%
    03:00 +28°C° 0 mm 3 mps 638 mmHg 30%
    04:00 +28°C° 0 mm 3 mps 638 mmHg 32%
    05:00 +27°C° 0 mm 3 mps 638 mmHg 35%
    06:00 +28°C° 0 mm 4 mps 638 mmHg 33%
    07:00 +30°C° 0 mm 5 mps 639 mmHg 30%
    08:00 +32°C° 0 mm 5 mps 639 mmHg 28%
    09:00 +33°C° 0 mm 6 mps 639 mmHg 26%
    10:00 +34°C° 0 mm 6 mps 639 mmHg 23%
    11:00 +35°C° 0 mm 6 mps 639 mmHg 21%
    12:00 +36°C° 0 mm 5 mps 639 mmHg 19%
    13:00 +37°C° 0 mm 5 mps 639 mmHg 18%
    14:00 +37°C° 0 mm 4 mps 639 mmHg 16%
    15:00 +38°C° 0 mm 4 mps 639 mmHg 16%
    16:00 +38°C° 0 mm 4 mps 638 mmHg 15%
    17:00 +38°C° 0 mm 4 mps 638 mmHg 14%
    18:00 +36°C° 0 mm 4 mps 638 mmHg 18%
    19:00 +34°C° 0 mm 5 mps 638 mmHg 22%
    20:00 +33°C° 0 mm 6 mps 638 mmHg 26%
    21:00 +32°C° 0 mm 6 mps 638 mmHg 30%
    22:00 +30°C° 0 mm 5 mps 638 mmHg 34%
    23:00 +29°C° 0 mm 5 mps 637 mmHg 39%

    19 July, Friday

    Time Temperature Precipitation Wind Pressure Humidity
    00:00 +28°C° 0 mm 4 mps 637 mmHg 40%
    01:00 +27°C° 0 mm 3 mps 637 mmHg 41%
    02:00 +27°C° 0 mm 3 mps 637 mmHg 42%
    03:00 +26°C° 0 mm 2 mps 637 mmHg 42%
    04:00 +26°C° 0 mm 2 mps 636 mmHg 42%
    05:00 +25°C° 0 mm 1 mps 636 mmHg 42%
    06:00 +27°C° 0 mm 2 mps 637 mmHg 38%
    07:00 +28°C° 0 mm 2 mps 637 mmHg 34%
    08:00 +30°C° 0 mm 2 mps 638 mmHg 29%
    09:00 +31°C° 0 mm 2 mps 638 mmHg 25%
    10:00 +34°C° 0 mm 2 mps 638 mmHg 21%
    11:00 +36°C° 0 mm 3 mps 638 mmHg 17%
    12:00 +36°C° 0 mm 3 mps 638 mmHg 16%
    13:00 +37°C° 0 mm 3 mps 638 mmHg 15%
    14:00 +38°C° 0 mm 3 mps 638 mmHg 13%
    15:00 +38°C° 0 mm 2 mps 638 mmHg 13%
    16:00 +38°C° 0 mm 2 mps 638 mmHg 13%
    17:00 +38°C° 0 mm 2 mps 638 mmHg 13%
    18:00 +36°C° 0 mm 4 mps 637 mmHg 18%
    19:00 +34°C° 0 mm 5 mps 637 mmHg 22%
    20:00 +32°C° 0 mm 7 mps 637 mmHg 27%
    21:00 +32°C° 0 mm 6 mps 637 mmHg 30%
    22:00 +30°C° 0 mm 5 mps 637 mmHg 34%
    23:00 +29°C° 0 mm 4 mps 637 mmHg 37%

    20 July, Saturday

    Time Temperature Precipitation Wind Pressure Humidity
    00:00 +28°C° 0 mm 4 mps 637 mmHg 38%
    01:00 +28°C° 0 mm 3 mps 636 mmHg 40%
    02:00 +27°C° 0 mm 3 mps 636 mmHg 41%
    03:00 +27°C° 0 mm 2 mps 636 mmHg 42%
    04:00 +26°C° 0 mm 2 mps 636 mmHg 43%
    05:00 +26°C° 0 mm 2 mps 636 mmHg 44%
    06:00 +27°C° 0 mm 3 mps 636 mmHg 42%
    07:00 +28°C° 0 mm 4 mps 637 mmHg 40%
    08:00 +29°C° 0 mm 4 mps 637 mmHg 38%
    09:00 +31°C° 0 mm 3 mps 637 mmHg 34%
    10:00 +33°C° 0 mm 3 mps 638 mmHg 31%
    11:00 +34°C° 0 mm 2 mps 638 mmHg 27%
    12:00 +35°C° 0 mm 2 mps 638 mmHg 24%
    13:00 +36°C° 0 mm 2 mps 637 mmHg 21%
    14:00 +37°C° 0 mm 1 mps 637 mmHg 18%
    15:00 +36°C° 0.1 mm 4 mps 637 mmHg 21%
    16:00 +35°C° 0.1 mm 6 mps 637 mmHg 25%
    17:00 +33°C° 0.1 mm 8 mps 637 mmHg 28%
    18:00 +32°C° 0.3 mm 7 mps 637 mmHg 32%
    19:00 +30°C° 0.3 mm 7 mps 637 mmHg 36%
    20:00 +29°C° 0.3 mm 6 mps 637 mmHg 41%
    21:00 +27°C° 0.4 mm 5 mps 637 mmHg 49%
    22:00 +26°C° 0.4 mm 5 mps 637 mmHg 57%
    23:00 +23°C° 0.4 mm 4 mps 637 mmHg 65%
    Show more